{"data":{"norad_id":49147,"intl_designator":"2021-082T","name":"STARLINK-3071","alt_names":[],"object_type":"PAYLOAD","status":"ACTIVE","operator":null,"country":"US","launch_date":"2021-09-14","launch_site_code":"AFWTR","launch_vehicle":null,"mission":null,"orbit_class":"UNKNOWN","rcs_meters":null,"size_class":null,"mass_kg":null,"dimensions":null,"purposes":["comms"],"wikipedia_slug":null,"has_3d_model":false,"image_url":null,"decayed_at":null,"tle_current":{"epoch":"2026-05-25T04:05:16.315008Z","epoch_age_seconds":70453,"freshness":"FRESH","line1":"1 49147U 21082T   26145.17032772  .00002717  00000+0  23524-3 0  9990","line2":"2 49147  70.0004  61.6258 0002866 267.1053  92.9778 14.98356474258426","mean_motion":14.98356474,"eccentricity":0.0002866,"inclination_deg":70.0004,"raan_deg":61.6258,"arg_perigee_deg":267.1053,"mean_anomaly_deg":92.9778,"bstar":0.00023524,"rev_number":25842,"period_min":96.105301040665,"perigee_km":569.98212166936,"apogee_km":573.96592530803,"semimajor_km":6950.1110234887,"source":"CELESTRAK","updated_at":"2026-05-25T13:38:16.788013Z"}}}